Погода в Нижнем Мулебки

Россия / Республика Дагестан     42°19′41″N   47°34′03″E
темп.,
°C
ветер,
м/с
пор.,
м/с
влажн.,
%
обл.,
%
осадки,
мм/ч
давл.,
гПа
погр.,
м
19 апреля, пн
пн1900:00+9зюз3278100 0.1 101721
03:00+9ююв1172100 0.1 101610
06:00+9юз116976 0.0 101612
09:00+13вюв225872 0.0 1015742
12:00+15в435850 0.0 1014960
15:00+15в326196 0.1 1013869
18:00+12вюв227310 0.0 1014118
21:00+9ююв118680 0.0 101611
20 апреля, вт
вт2000:00+9зюз1173100 0.0 101510
03:00+9юз2260100 0.0 101410
06:00+10ююз2156100 0.0 101313
09:00+16ссз1341100 0.0 1012403
12:00+23ссв1428100 0.0 10081992
15:00+23юз2524100 0.0 10072092
18:00+19юз3235100 0.0 100818
21:00+13зюз4471100 1.1 101179
21 апреля, ср
ср2100:00+13юз4568100 0.8 101084
03:00+12ю2261100 0.8 101111
06:00+12ююв116593 0.0 101214
09:00+15вюв446498 0.0 1013503
12:00+19ююв1104353 0.0 10112424
15:00+9всв448992 0.1 1015392
18:00+10з118699 1.1 1017269
21:00+7в2295100 1.2 1019340
22 апреля, чт
чт2200:00+7вюв229697 0.1 1019287
03:00+7юв229578 0.1 1019205
06:00+6вюв229592 0.0 1020250
09:00+7в338598 0.1 1020566
12:00+9всв327996 0.0 1019671
15:00+7всв3291100 0.1 1020475
18:00+6всв2297100 0.2 1021333
21:00+5всв2197100 0.4 1023228
23 апреля, пт
пт2300:00+5в2198100 0.1 1021234
03:00+5в129799 0.2 1021417
06:00+4в229595 0.1 1021247
09:00+4в2291100 0.1 1022492
12:00+5всв2190100 0.1 1022502
15:00+5св118898 0.1 1022426
18:00+6ссв118494 0.0 1022319
21:00+5зюз1083100 0.0 102216